SQ259 YBBN-WADD

Flight info

Callsign SQ259
Flight time N/A
Altitude 34000
Route BN V250 UNVAT TAVEV G326 NYOMA NYOM1C
Aircraft A359/H-V/N

Departure

Time 2026-05-08 07:05
Airport Brisbane International Airport (YBBN)

Arrival

Time N/A
Airport Denpasar I Gusti Ngurah Rai International Airport (WADD)
Time Latitude Longitude Altitude Speed Heading
2026-05-08 05:32 -27.39967 153.11406 25 ft 0 kts 282°
2026-05-08 05:53 -27.39971 153.11427 25 ft 3 kts 281°
2026-05-08 05:53 -27.39976 153.11456 25 ft 3 kts 289°
2026-05-08 05:54 -27.39987 153.11479 25 ft 3 kts 313°
2026-05-08 05:54 -27.40005 153.11496 25 ft 2 kts 334°
2026-05-08 05:54 -27.40015 153.11497 25 ft 2 kts 23°
2026-05-08 05:54 -27.40019 153.11496 25 ft 0 kts 27°
2026-05-08 06:59 -27.40015 153.11497 25 ft 3 kts 27°
2026-05-08 06:59 -27.39952 153.11536 25 ft 15 kts 29°
2026-05-08 06:59 -27.39903 153.11568 25 ft 0 kts 33°
2026-05-08 07:00 -27.39888 153.11578 26 ft 6 kts 34°
2026-05-08 07:00 -27.39874 153.11601 26 ft 4 kts 84°
2026-05-08 07:00 -27.39907 153.11638 26 ft 11 kts 156°
2026-05-08 07:00 -27.40043 153.11591 26 ft 25 kts 206°
2026-05-08 07:01 -27.40201 153.11513 26 ft 23 kts 178°
2026-05-08 07:01 -27.40297 153.11627 26 ft 7 kts 116°
2026-05-08 07:01 -27.40297 153.11629 26 ft 0 kts 116°
2026-05-08 07:01 -27.40299 153.11633 26 ft 3 kts 115°
2026-05-08 07:02 -27.40300 153.11633 26 ft 0 kts 115°
2026-05-08 07:02 -27.40313 153.11681 26 ft 13 kts 102°
2026-05-08 07:02 -27.40301 153.11795 26 ft 14 kts 63°
2026-05-08 07:03 -27.40255 153.11839 26 ft 0 kts 24°
2026-05-08 07:03 -27.40080 153.11937 26 ft 67 kts 27°
2026-05-08 07:03 -27.39440 153.12306 26 ft 139 kts 26°
2026-05-08 07:03 -27.38388 153.12909 55 ft 193 kts 26°
2026-05-08 07:04 -27.37104 153.13628 258 ft 219 kts 25°
2026-05-08 07:04 -27.35588 153.14485 141 ft 265 kts 27°
2026-05-08 07:04 -27.34063 153.15811 69 ft 280 kts 53°
2026-05-08 07:04 -27.33343 153.17699 300 ft 254 kts 85°
2026-05-08 07:05 -27.33344 153.19548 787 ft 228 kts 87°
2026-05-08 07:05 -27.32965 153.21291 1377 ft 236 kts 68°
2026-05-08 07:05 -27.32343 153.23041 1952 ft 246 kts 72°
2026-05-08 07:05 -27.32260 153.24945 2473 ft 253 kts 108°
2026-05-08 07:06 -27.33161 153.26640 3064 ft 257 kts 129°
2026-05-08 07:06 -27.34297 153.28204 3616 ft 262 kts 129°
2026-05-08 07:06 -27.35435 153.29807 4179 ft 264 kts 128°
2026-05-08 07:06 -27.36650 153.31377 4725 ft 266 kts 143°
2026-05-08 07:07 -27.38309 153.32204 5272 ft 264 kts 174°
2026-05-08 07:07 -27.40114 153.32024 5829 ft 262 kts 203°
2026-05-08 07:07 -27.41621 153.30908 6390 ft 261 kts 231°
2026-05-08 07:07 -27.42487 153.29166 6955 ft 259 kts 255°
2026-05-08 07:08 -27.42973 153.27202 7523 ft 263 kts 257°
2026-05-08 07:08 -27.43451 153.25227 8084 ft 265 kts 257°
2026-05-08 07:08 -27.43876 153.23198 8635 ft 264 kts 269°
2026-05-08 07:08 -27.43595 153.21208 9198 ft 261 kts 294°
2026-05-08 07:09 -27.42708 153.19418 9775 ft 265 kts 301°
2026-05-08 07:09 -27.41753 153.17636 10344 ft 269 kts 301°
2026-05-08 07:09 -27.40782 153.15819 10909 ft 276 kts 301°
2026-05-08 07:09 -27.39790 153.13945 11473 ft 283 kts 301°
2026-05-08 07:10 -27.38779 153.12022 12039 ft 289 kts 301°
2026-05-08 07:10 -27.37760 153.10080 12595 ft 295 kts 301°
2026-05-08 07:10 -27.36698 153.08055 13163 ft 301 kts 302°
2026-05-08 07:10 -27.35599 153.06047 13717 ft 306 kts 305°
2026-05-08 07:11 -27.34331 153.04128 14314 ft 309 kts 310°
2026-05-08 07:11 -27.32917 153.02286 14919 ft 311 kts 311°
2026-05-08 07:11 -27.31491 153.00476 15507 ft 313 kts 311°
2026-05-08 07:11 -27.30068 152.98639 16094 ft 315 kts 308°
2026-05-08 07:12 -27.28779 152.96617 16690 ft 316 kts 302°
2026-05-08 07:12 -27.27709 152.94484 17277 ft 317 kts 298°
2026-05-08 07:12 -27.26688 152.92288 17874 ft 318 kts 297°
2026-05-08 07:12 -27.25674 152.90093 18486 ft 319 kts 297°
2026-05-08 07:13 -27.24644 152.87865 19106 ft 319 kts 297°
2026-05-08 07:13 -27.23629 152.85667 19717 ft 318 kts 297°
2026-05-08 07:13 -27.22616 152.83482 20325 ft 318 kts 296°
2026-05-08 07:13 -27.21605 152.81299 20928 ft 317 kts 296°
2026-05-08 07:14 -27.20588 152.79106 21549 ft 316 kts 295°
2026-05-08 07:14 -27.19588 152.76950 22161 ft 314 kts 296°
2026-05-08 07:14 -27.18576 152.74768 22781 ft 312 kts 296°
2026-05-08 07:14 -27.17588 152.72647 23397 ft 309 kts 295°
2026-05-08 07:15 -27.16584 152.70506 24029 ft 306 kts 296°
2026-05-08 07:15 -27.15606 152.68420 24663 ft 303 kts 295°
2026-05-08 07:15 -27.14634 152.66344 25298 ft 299 kts 296°
2026-05-08 07:15 -27.13675 152.64302 25935 ft 294 kts 296°
2026-05-08 07:16 -27.12732 152.62297 26446 ft 292 kts 296°
2026-05-08 07:16 -27.11792 152.60292 26836 ft 293 kts 296°
2026-05-08 07:16 -27.10834 152.58263 27221 ft 294 kts 296°
2026-05-08 07:16 -27.09883 152.56247 27606 ft 294 kts 296°
2026-05-08 07:17 -27.08927 152.54219 28064 ft 292 kts 296°
2026-05-08 07:17 -27.07981 152.52216 28572 ft 288 kts 296°
2026-05-08 07:17 -27.07062 152.50264 29079 ft 284 kts 297°
2026-05-08 07:17 -27.06230 152.48498 29547 ft 279 kts 297°
2026-05-08 07:18 -27.05073 152.46060 30152 ft 271 kts 296°
2026-05-08 07:18 -27.04199 152.44215 30591 ft 265 kts 296°
2026-05-08 07:19 -27.03335 152.42386 30664 ft 271 kts 296°
2026-05-08 07:19 -27.02440 152.40491 30678 ft 279 kts 296°
2026-05-08 07:19 -27.01528 152.38560 30705 ft 287 kts 296°
2026-05-08 07:19 -27.00578 152.36549 30719 ft 295 kts 296°
2026-05-08 07:20 -26.98612 152.32385 30759 ft 311 kts 297°
2026-05-08 07:20 -26.96531 152.27974 30764 ft 328 kts 297°
2026-05-08 07:21 -26.94351 152.23369 30987 ft 338 kts 297°
2026-05-08 07:21 -26.93266 152.21088 31471 ft 333 kts 296°
2026-05-08 07:21 -26.92187 152.18820 31960 ft 327 kts 296°
2026-05-08 07:22 -26.91124 152.16588 32459 ft 321 kts 296°
2026-05-08 07:22 -26.90094 152.14426 32945 ft 314 kts 296°
2026-05-08 07:22 -26.89067 152.12283 33443 ft 308 kts 295°
2026-05-08 07:22 -26.88067 152.10213 33892 ft 303 kts 296°
2026-05-08 07:23 -26.87062 152.08118 34024 ft 306 kts 295°
2026-05-08 07:23 -26.86053 152.06017 34006 ft 313 kts 295°
2026-05-08 07:23 -26.83961 152.01636 34022 ft 324 kts 295°
2026-05-08 07:24 -26.81788 151.97093 34024 ft 336 kts 295°
2026-05-08 07:24 -26.79567 151.92447 34009 ft 346 kts 296°
2026-05-08 07:25 -26.77266 151.87642 34028 ft 356 kts 295°
2026-05-08 07:26 -26.73693 151.80188 34020 ft 370 kts 296°
2026-05-08 07:26 -26.71230 151.75058 34022 ft 378 kts 296°
2026-05-08 07:27 -26.68712 151.69821 34032 ft 386 kts 296°
2026-05-08 07:27 -26.66147 151.64484 34023 ft 393 kts 296°
2026-05-08 07:28 -26.63558 151.59113 34029 ft 396 kts 296°
2026-05-08 07:28 -26.60935 151.53676 34034 ft 396 kts 296°
2026-05-08 07:29 -26.58327 151.48276 34039 ft 396 kts 296°
2026-05-08 07:29 -26.55700 151.42847 34032 ft 396 kts 296°
2026-05-08 07:30 -26.53091 151.37454 34038 ft 396 kts 296°
2026-05-08 07:30 -26.50473 151.32051 34044 ft 396 kts 296°
2026-05-08 07:31 -26.47868 151.26649 34041 ft 397 kts 297°
2026-05-08 07:31 -26.45239 151.21228 34034 ft 397 kts 296°
2026-05-08 07:32 -26.42618 151.15834 34048 ft 396 kts 296°
2026-05-08 07:32 -26.39987 151.10431 34045 ft 396 kts 297°
2026-05-08 07:33 -26.37364 151.05054 34044 ft 397 kts 297°
2026-05-08 07:33 -26.34729 150.99654 34038 ft 397 kts 296°
2026-05-08 07:34 -26.32104 150.94284 34041 ft 397 kts 296°
2026-05-08 07:34 -26.29465 150.88895 34051 ft 397 kts 297°
2026-05-08 07:35 -26.26803 150.83469 34040 ft 398 kts 296°
2026-05-08 07:35 -26.24168 150.78096 34049 ft 398 kts 297°
2026-05-08 07:36 -26.21510 150.72682 34047 ft 397 kts 296°
2026-05-08 07:36 -26.18870 150.67308 34044 ft 397 kts 296°
2026-05-08 07:37 -26.16232 150.61949 34060 ft 387 kts 297°
2026-05-08 07:37 -26.13629 150.56674 34043 ft 394 kts 297°
2026-05-08 07:38 -26.10986 150.51323 34045 ft 395 kts 296°
2026-05-08 07:38 -26.08340 150.45975 34047 ft 394 kts 296°
2026-05-08 07:39 -26.05702 150.40648 34048 ft 395 kts 296°
2026-05-08 07:39 -26.03060 150.35312 34051 ft 394 kts 296°
2026-05-08 07:40 -26.00412 150.29961 34055 ft 395 kts 296°
2026-05-08 07:40 -25.97777 150.24631 34048 ft 395 kts 297°
2026-05-08 07:41 -25.95141 150.19322 34054 ft 394 kts 297°
2026-05-08 07:41 -25.92477 150.13976 34046 ft 395 kts 297°
2026-05-08 07:42 -25.89828 150.08664 34053 ft 395 kts 297°
2026-05-08 07:42 -25.87138 150.03325 34045 ft 395 kts 297°
2026-05-08 07:43 -25.84457 149.97992 34056 ft 395 kts 297°
2026-05-08 07:43 -25.81809 149.92674 34034 ft 395 kts 295°
2026-05-08 07:44 -25.79818 149.87041 34031 ft 394 kts 286°
2026-05-08 07:44 -25.78499 149.81160 34045 ft 395 kts 285°
2026-05-08 07:45 -25.77204 149.75227 34042 ft 396 kts 284°
2026-05-08 07:45 -25.75923 149.69330 34052 ft 396 kts 284°
2026-05-08 07:46 -25.74632 149.63380 34044 ft 395 kts 284°
2026-05-08 07:46 -25.73352 149.57481 34055 ft 396 kts 284°
2026-05-08 07:47 -25.72064 149.51556 34053 ft 396 kts 284°
2026-05-08 07:47 -25.70774 149.45631 34056 ft 396 kts 284°
2026-05-08 07:48 -25.69487 149.39717 34058 ft 397 kts 284°
2026-05-08 07:48 -25.68186 149.33752 34066 ft 397 kts 285°
2026-05-08 07:49 -25.66893 149.27829 34058 ft 397 kts 285°
2026-05-08 07:49 -25.65601 149.21915 34063 ft 397 kts 285°
2026-05-08 07:50 -25.64290 149.15942 34060 ft 398 kts 285°
2026-05-08 07:50 -25.62979 149.09988 34061 ft 398 kts 285°
2026-05-08 07:51 -25.61666 149.04030 34065 ft 398 kts 285°
2026-05-08 07:51 -25.60348 148.98071 34064 ft 399 kts 285°
2026-05-08 07:52 -25.59030 148.92134 34071 ft 399 kts 285°
2026-05-08 07:52 -25.57704 148.86165 34073 ft 399 kts 285°
2026-05-08 07:53 -25.56377 148.80200 34080 ft 399 kts 285°
2026-05-08 07:53 -25.55050 148.74258 34073 ft 398 kts 285°
2026-05-08 07:54 -25.53726 148.68338 34086 ft 398 kts 285°
2026-05-08 07:54 -25.52395 148.62389 34073 ft 398 kts 285°
2026-05-08 07:55 -25.51061 148.56448 34082 ft 398 kts 285°
2026-05-08 07:55 -25.49724 148.50501 34084 ft 398 kts 285°
2026-05-08 07:56 -25.48386 148.44557 34085 ft 398 kts 285°
2026-05-08 07:56 -25.47055 148.38658 34089 ft 398 kts 285°
2026-05-08 07:57 -25.45713 148.32732 34099 ft 397 kts 285°
2026-05-08 07:57 -25.44375 148.26800 34094 ft 398 kts 285°
2026-05-08 07:58 -25.43042 148.20901 34099 ft 398 kts 285°
2026-05-08 07:58 -25.41692 148.14960 34099 ft 398 kts 285°
2026-05-08 07:59 -25.40345 148.09055 34102 ft 398 kts 285°
2026-05-08 07:59 -25.38996 148.03148 34103 ft 398 kts 285°
2026-05-08 08:00 -25.37635 147.97212 34105 ft 397 kts 285°
2026-05-08 08:00 -25.36285 147.91327 34105 ft 398 kts 285°
2026-05-08 08:01 -25.34927 147.85408 34096 ft 398 kts 285°
2026-05-08 08:01 -25.34192 147.82216 34097 ft 398 kts 285°
2026-05-08 08:02 -25.32825 147.76294 34098 ft 398 kts 285°
2026-05-08 08:02 -25.31453 147.70346 34097 ft 398 kts 285°
2026-05-08 08:03 -25.30088 147.64456 34092 ft 398 kts 285°
2026-05-08 08:03 -25.28714 147.58528 34095 ft 399 kts 285°
2026-05-08 08:04 -25.27340 147.52620 34091 ft 398 kts 285°
2026-05-08 08:04 -25.25966 147.46712 34093 ft 399 kts 285°
2026-05-08 08:05 -25.24576 147.40749 34086 ft 398 kts 285°
2026-05-08 08:05 -25.23186 147.34796 34098 ft 398 kts 286°
2026-05-08 08:06 -25.21792 147.28812 34089 ft 399 kts 286°
2026-05-08 08:06 -25.20408 147.22891 34098 ft 399 kts 285°
2026-05-08 08:07 -25.19021 147.16986 34089 ft 399 kts 285°
2026-05-08 08:07 -25.17612 147.10989 34089 ft 406 kts 286°
2026-05-08 08:08 -25.16185 147.04944 34087 ft 410 kts 285°
2026-05-08 08:08 -25.14747 146.98859 34089 ft 411 kts 285°
2026-05-08 08:09 -25.13303 146.92766 34090 ft 411 kts 285°
2026-05-08 08:09 -25.11860 146.86682 34089 ft 411 kts 285°
2026-05-08 08:10 -25.10411 146.80588 34081 ft 411 kts 286°
2026-05-08 08:10 -25.08959 146.74503 34093 ft 411 kts 285°
2026-05-08 08:11 -25.07511 146.68428 34087 ft 410 kts 285°
2026-05-08 08:11 -25.06060 146.62360 34095 ft 410 kts 285°
2026-05-08 08:12 -25.04607 146.56297 34089 ft 410 kts 285°
2026-05-08 08:12 -25.03150 146.50230 34099 ft 410 kts 285°
2026-05-08 08:13 -25.01692 146.44174 34094 ft 411 kts 285°
2026-05-08 08:13 -25.00230 146.38110 34108 ft 411 kts 285°
2026-05-08 08:14 -24.98757 146.32004 34103 ft 410 kts 285°
2026-05-08 08:14 -24.97307 146.25974 34102 ft 410 kts 286°
2026-05-08 08:15 -24.95843 146.19917 34104 ft 410 kts 286°
2026-05-08 08:15 -24.94369 146.13832 34099 ft 410 kts 285°
2026-05-08 08:16 -24.92899 146.07796 34099 ft 410 kts 285°
2026-05-08 08:16 -24.91423 146.01733 34104 ft 411 kts 285°
2026-05-08 08:17 -24.89946 145.95682 34091 ft 410 kts 286°
2026-05-08 08:17 -24.88434 145.89613 34109 ft 410 kts 286°
2026-05-08 08:18 -24.86936 145.83589 34100 ft 411 kts 286°
2026-05-08 08:18 -24.85434 145.77528 34093 ft 410 kts 286°
2026-05-08 08:19 -24.83944 145.71478 34095 ft 411 kts 285°
2026-05-08 08:19 -24.82447 145.65419 34095 ft 411 kts 286°